Regional Weather Roundup
Issued by NWS Green Bay, WI

Home | Current Version | Previous Version | Text Only | Print | Product List | Glossary On
Versions: 1 2 3 4 5 6 7 8 9 10 11 12 13 14 15 16 17 18 19 20 21 22 23 24 25 26 27 28 29 30 31 32 33 34 35 36 37 38 39 40 41 42 43 44 45 46 47 48 49 50
000
ASUS43 KGRB 261700
RWRGRB

NORTH-CENTRAL AND NORTHEAST WISCONSIN REGIONAL WEATHER ROUNDUP
NATIONAL WEATHER SERVICE GREEN BAY WI
1200 PM CDT TUE MAY 26 2015

WIZ005-009-010>012-018-019-261800-
NORTH CENTRAL WISCONSIN

CITY           SKY/WX    TMP DP  RH WIND       PRES   REMARKS
IRONWOOD       CLOUDY    57  54  88 N3        29.82F
MANITOWISH WTR NOT AVBL
ARBOR VITAE    NOT AVBL
EAGLE RIVER    NOT AVBL
LAND O LAKES   NOT AVBL
RHINELANDER    CLOUDY    67  60  78 CALM      29.83F
PHILLIPS       NOT AVBL
ANTIGO         NOT AVBL
TOMAHAWK       NOT AVBL
MERRILL        NOT AVBL
$$

WIZ013-073-261800-
NORTHEAST WISCONSIN

CITY           SKY/WX    TMP DP  RH WIND       PRES   REMARKS
IRON MOUNTAIN  CLOUDY    72  63  73 VRB3      29.82F
MARINETTE      CLOUDY    68  57  68 S16       29.83R
$$

WIZ017-030-035>037-045-261800-
CENTRAL WISCONSIN

CITY           SKY/WX    TMP DP  RH WIND       PRES   REMARKS
MEDFORD        NOT AVBL
WAUSAU         CLOUDY    73  60  63 NW6       29.79S
MOSINEE        NOT AVBL
MARSHFIELD     LGT RAIN  65  60  84 SW8       29.83R
WISC RAPIDS    RAIN      65  61  87 W10G25    29.85R FOG
STEVENS POINT  NOT AVBL
WAUPACA        NOT AVBL
SHAWANO        NOT AVBL
CLINTONVILLE   NOT AVBL
$$

WIZ038-039-048-051-261800-
FOX VALLEY

CITY           SKY/WX    TMP DP  RH WIND       PRES   REMARKS
NWS GREEN BAY  CLOUDY    77  69  76 S14       29.80F
APPLETON       PTSUNNY   72  64  78 S10G17    29.82F
OSHKOSH        CLOUDY    72  65  78 SE8       29.81S
FOND DU LAC    CLOUDY    71  65  81 S10       29.81F
$$

WIZ022-050-052-261800-
EAST CENTRAL WISCONSIN

CITY           SKY/WX    TMP DP  RH WIND       PRES   REMARKS
STURGEON BAY   CLOUDY    64  61  88 S17       29.87F
MANITOWOC      NOT AVBL
SHEBOYGAN      CLOUDY    65  61  87 S14       29.85S
$$

LMZ563-521-522-541>543-261800-
LAKESHORE

STATION/POSITION TIME  TEMP    WIND        PRES    VSBY  WAVE
                       AIR SEA DIR/SP/G                  HT/PER
                 (UTC) (F)     (DEG/KT/KT) (MB)    (MI)  (FT/S)
SHEBOYGAN LKSHOR 1600   49     160/ 12/ 12 1011.5F
KEWAUNEE LKSHORE 1600   48     190/ 15/ 17 1010.9F
NORTHPORT PIER   1600   57     150/  8/ 11 1011.2F
N MID LAKE BUOY  1550   44 37  200/ 14/ 16 1012.1F         2/ 5
CHAMBERS ISLAND  1600   73     150/  6/  9 1010.5F
MENOMINEE LKSHOR 1600   58     140/ 12/ 13 1010.9F
$$


USA.gov is the U.S. government's official web portal to all federal, state and local government web resources and services.